• Em Portugal
  • Lista de países
  • Para 7 dias
  • Temperatura da água
  • Mapas de satélite
  • Mapa do tempo
  • Widgets de tempo
  • user-avatar
    Iniciar Sessão

    Previsão horária em Biratnagar

    Hoje, 21 Fevereiro, Quarta-feira

    Tempo Temperatura Precipitação Vento Pressão Humidade
    00:00 +20°C° 0 mm 2 m/s 753 mmHg 45%
    01:00 +20°C° 0 mm 2 m/s 753 mmHg 47%
    02:00 +19°C° 0 mm 2 m/s 753 mmHg 48%
    03:00 +20°C° 0 mm 1 m/s 752 mmHg 50%
    04:00 +19°C° 0 mm 1 m/s 752 mmHg 51%
    05:00 +19°C° 0 mm 1 m/s 752 mmHg 51%
    06:00 +19°C° 0 mm 1 m/s 752 mmHg 52%
    07:00 +21°C° 0 mm 1 m/s 753 mmHg 48%
    08:00 +23°C° 0 mm 1 m/s 753 mmHg 43%
    09:00 +22°C° 0 mm 0 m/s 753 mmHg 38%
    10:00 +26°C° 0 mm 1 m/s 753 mmHg 34%
    11:00 +28°C° 0 mm 2 m/s 753 mmHg 31%
    12:00 +29°C° 0 mm 2 m/s 753 mmHg 27%
    13:00 +30°C° 0 mm 3 m/s 752 mmHg 25%
    14:00 +31°C° 0 mm 3 m/s 751 mmHg 24%
    15:00 +31°C° 0 mm 3 m/s 751 mmHg 23%
    16:00 +29°C° 0 mm 3 m/s 751 mmHg 26%
    17:00 +28°C° 0 mm 3 m/s 751 mmHg 29%
    18:00 +26°C° 0 mm 2 m/s 751 mmHg 31%
    19:00 +25°C° 0 mm 2 m/s 751 mmHg 33%
    20:00 +24°C° 0 mm 2 m/s 752 mmHg 35%
    21:00 +23°C° 0 mm 2 m/s 752 mmHg 37%
    22:00 +21°C° 0 mm 2 m/s 752 mmHg 39%
    23:00 +21°C° 0 mm 2 m/s 752 mmHg 40%

    Amanhã, 22 Fevereiro, Quinta-feira

    Tempo Temperatura Precipitação Vento Pressão Humidade
    00:00 +20°C° 0 mm 2 m/s 752 mmHg 41%
    01:00 +21°C° 0 mm 1 m/s 752 mmHg 43%
    02:00 +20°C° 0 mm 1 m/s 751 mmHg 44%
    03:00 +20°C° 0 mm 1 m/s 751 mmHg 45%
    04:00 +20°C° 0 mm 1 m/s 751 mmHg 45%
    05:00 +19°C° 0 mm 1 m/s 751 mmHg 45%
    06:00 +19°C° 0 mm 1 m/s 751 mmHg 45%
    07:00 +20°C° 0 mm 2 m/s 752 mmHg 41%
    08:00 +23°C° 0 mm 2 m/s 752 mmHg 37%
    09:00 +25°C° 0 mm 2 m/s 753 mmHg 33%
    10:00 +26°C° 0 mm 2 m/s 752 mmHg 31%
    11:00 +28°C° 0 mm 2 m/s 752 mmHg 29%
    12:00 +30°C° 0 mm 3 m/s 752 mmHg 27%
    13:00 +30°C° 0 mm 2 m/s 751 mmHg 26%
    14:00 +31°C° 0 mm 2 m/s 751 mmHg 26%
    15:00 +31°C° 0 mm 1 m/s 750 mmHg 25%
    16:00 +30°C° 0 mm 2 m/s 750 mmHg 28%
    17:00 +28°C° 0 mm 2 m/s 750 mmHg 31%
    18:00 +27°C° 0 mm 2 m/s 750 mmHg 35%
    19:00 +26°C° 0 mm 2 m/s 751 mmHg 37%
    20:00 +25°C° 0 mm 2 m/s 752 mmHg 39%
    21:00 +23°C° 0 mm 2 m/s 752 mmHg 41%
    22:00 +23°C° 0 mm 2 m/s 752 mmHg 43%
    23:00 +21°C° 0 mm 2 m/s 752 mmHg 44%

    Depois de amanhã, 23 Fevereiro, Sexta-feira

    Tempo Temperatura Precipitação Vento Pressão Humidade
    00:00 +21°C° 0 mm 2 m/s 752 mmHg 45%
    01:00 +21°C° 0 mm 2 m/s 752 mmHg 46%
    02:00 +20°C° 0 mm 2 m/s 751 mmHg 46%
    03:00 +20°C° 0 mm 2 m/s 751 mmHg 47%
    04:00 +19°C° 0 mm 2 m/s 751 mmHg 47%
    05:00 +19°C° 0 mm 2 m/s 751 mmHg 47%
    06:00 +19°C° 0 mm 2 m/s 751 mmHg 47%
    07:00 +21°C° 0 mm 2 m/s 752 mmHg 44%
    08:00 +24°C° 0 mm 2 m/s 753 mmHg 40%
    09:00 +25°C° 0 mm 2 m/s 753 mmHg 36%
    10:00 +27°C° 0 mm 2 m/s 753 mmHg 35%
    11:00 +28°C° 0 mm 2 m/s 753 mmHg 33%
    12:00 +30°C° 0 mm 2 m/s 753 mmHg 31%
    13:00 +30°C° 0 mm 2 m/s 752 mmHg 30%
    14:00 +31°C° 0 mm 2 m/s 751 mmHg 29%
    15:00 +31°C° 0 mm 2 m/s 750 mmHg 28%
    16:00 +30°C° 0 mm 2 m/s 751 mmHg 31%
    17:00 +29°C° 0 mm 2 m/s 751 mmHg 34%
    18:00 +28°C° 0 mm 2 m/s 751 mmHg 36%
    19:00 +27°C° 0 mm 2 m/s 752 mmHg 39%
    20:00 +25°C° 0 mm 2 m/s 752 mmHg 41%
    21:00 +24°C° 0 mm 2 m/s 753 mmHg 43%
    22:00 +24°C° 0 mm 2 m/s 753 mmHg 45%
    23:00 +23°C° 0 mm 2 m/s 753 mmHg 47%

    24 Fevereiro, Sábado

    Tempo Temperatura Precipitação Vento Pressão Humidade
    00:00 +23°C° 0 mm 2 m/s 753 mmHg 48%
    01:00 +21°C° 0 mm 2 m/s 753 mmHg 49%
    02:00 +21°C° 0 mm 2 m/s 753 mmHg 51%
    03:00 +20°C° 0 mm 2 m/s 752 mmHg 52%
    04:00 +20°C° 0 mm 2 m/s 753 mmHg 53%
    05:00 +20°C° 0 mm 2 m/s 753 mmHg 54%
    06:00 +19°C° 0 mm 2 m/s 753 mmHg 55%
    07:00 +21°C° 0 mm 2 m/s 754 mmHg 50%
    08:00 +24°C° 0 mm 3 m/s 755 mmHg 45%
    09:00 +26°C° 0 mm 3 m/s 756 mmHg 41%
    10:00 +28°C° 0 mm 3 m/s 755 mmHg 38%
    11:00 +29°C° 0 mm 3 m/s 755 mmHg 35%
    12:00 +32°C° 0 mm 4 m/s 755 mmHg 32%
    13:00 +31°C° 0 mm 3 m/s 754 mmHg 30%
    14:00 +32°C° 0 mm 2 m/s 753 mmHg 29%
    15:00 +32°C° 0 mm 2 m/s 753 mmHg 28%
    16:00 +31°C° 0 mm 1 m/s 753 mmHg 30%
    17:00 +30°C° 0 mm 1 m/s 753 mmHg 32%
    18:00 +28°C° 0 mm 1 m/s 753 mmHg 35%
    19:00 +27°C° 0 mm 1 m/s 754 mmHg 37%
    20:00 +26°C° 0 mm 2 m/s 754 mmHg 40%
    21:00 +25°C° 0 mm 2 m/s 755 mmHg 42%
    22:00 +24°C° 0 mm 2 m/s 755 mmHg 44%
    23:00 +24°C° 0 mm 2 m/s 755 mmHg 46%

    25 Fevereiro, Domingo

    Tempo Temperatura Precipitação Vento Pressão Humidade
    00:00 +23°C° 0 mm 2 m/s 755 mmHg 48%
    01:00 +23°C° 0 mm 2 m/s 754 mmHg 49%
    02:00 +21°C° 0 mm 2 m/s 754 mmHg 50%
    03:00 +21°C° 0 mm 2 m/s 754 mmHg 52%
    04:00 +21°C° 0 mm 2 m/s 754 mmHg 53%
    05:00 +20°C° 0 mm 2 m/s 754 mmHg 53%
    06:00 +20°C° 0 mm 2 m/s 754 mmHg 54%
    07:00 +23°C° 0 mm 2 m/s 755 mmHg 49%
    08:00 +25°C° 0 mm 2 m/s 755 mmHg 44%
    09:00 +27°C° 0 mm 2 m/s 756 mmHg 40%
    10:00 +29°C° 0 mm 2 m/s 755 mmHg 36%
    11:00 +30°C° 0 mm 3 m/s 755 mmHg 33%
    12:00 +33°C° 0 mm 3 m/s 755 mmHg 30%
    13:00 +32°C° 0 mm 2 m/s 754 mmHg 29%
    14:00 +34°C° 0 mm 2 m/s 753 mmHg 27%
    15:00 +34°C° 0 mm 2 m/s 752 mmHg 26%
    16:00 +32°C° 0 mm 2 m/s 752 mmHg 28%
    17:00 +31°C° 0 mm 2 m/s 752 mmHg 31%
    18:00 +29°C° 0 mm 2 m/s 752 mmHg 34%
    19:00 +28°C° 0 mm 2 m/s 753 mmHg 36%
    20:00 +27°C° 0 mm 2 m/s 753 mmHg 39%
    21:00 +26°C° 0 mm 2 m/s 754 mmHg 42%
    22:00 +25°C° 0 mm 2 m/s 753 mmHg 44%
    23:00 +24°C° 0 mm 2 m/s 753 mmHg 46%

    26 Fevereiro, Segunda-feira

    Tempo Temperatura Precipitação Vento Pressão Humidade
    00:00 +24°C° 0 mm 2 m/s 753 mmHg 48%
    01:00 +23°C° 0 mm 2 m/s 753 mmHg 49%
    02:00 +23°C° 0 mm 2 m/s 752 mmHg 50%
    03:00 +21°C° 0 mm 2 m/s 752 mmHg 51%
    04:00 +21°C° 0 mm 2 m/s 752 mmHg 52%
    05:00 +21°C° 0 mm 2 m/s 752 mmHg 52%
    06:00 +20°C° 0 mm 2 m/s 753 mmHg 53%
    07:00 +23°C° 0 mm 2 m/s 753 mmHg 48%
    08:00 +25°C° 0 mm 2 m/s 753 mmHg 43%
    09:00 +27°C° 0 mm 2 m/s 754 mmHg 39%
    10:00 +29°C° 0 mm 2 m/s 753 mmHg 35%
    11:00 +31°C° 0 mm 2 m/s 753 mmHg 32%
    12:00 +32°C° 0 mm 2 m/s 753 mmHg 29%
    13:00 +34°C° 0 mm 2 m/s 752 mmHg 27%
    14:00 +34°C° 0 mm 2 m/s 751 mmHg 26%
    15:00 +35°C° 0 mm 2 m/s 751 mmHg 25%
    16:00 +34°C° 0 mm 2 m/s 751 mmHg 27%
    17:00 +31°C° 0 mm 2 m/s 751 mmHg 30%
    18:00 +30°C° 0 mm 2 m/s 751 mmHg 32%
    19:00 +29°C° 0 mm 2 m/s 751 mmHg 35%
    20:00 +27°C° 0 mm 2 m/s 752 mmHg 37%
    21:00 +26°C° 0 mm 2 m/s 752 mmHg 39%
    22:00 +26°C° 0 mm 2 m/s 752 mmHg 41%
    23:00 +25°C° 0 mm 2 m/s 752 mmHg 42%
    Mostrar mais